User: anonymous   Login
Location: Pensacola
(30.4142°N, 87.2155°W)
Time: 16:19:12
(UTC-06:00)
Language:

PEGASUS DEB - Orbit

View from above orbital plane
View from above orbital plane
View from above satellite
View from above satellite

Ground track
Ground track

The orbit data is extracted from the following two-line orbital elements,

1 27679U 94029AEJ 24044.38634357  .00005395  00000-0  13113-2 0  9991
2 27679  81.9767  91.8287 0316532 275.1524  81.3611 14.26513861148361
Epoch (UTC): 13 February 2024 09:16:20
Eccentricity: 0.0316532
inclination: 81.9767°
perigee height: 576 km
apogee height: 1031 km
right ascension of ascending node: 91.8287°
argument of perigee: 275.1524°
revolutions per day: 14.26513861
mean anomaly at epoch: 81.3611°
orbit number at epoch: 14836

The dashed part of the orbit path shows where the satellite is in the earth's shadow,  

DLR